STAR ONE D1

Last updated on Mon Jul 07 2025 00:02:45 GMT+0000 (Coordinated Universal Time)

1 41904U 16082B 25187.54752579 -.00000193 00000+0 00000+0 0 9994 2 41904 0.0139 48.1488 0002203 47.8046 301.9246 1.00270181 31304
UTC large
Height (km)
Speed (km/s)
/
Latitude / Longitude
Inclination (degrees)
Orbital Period (minutes)
Azimuth
Elevation
Range (km)
Doppler Factor

Next 0 passes for location: London (51.5072 / 0.1276)

Sorry there are no passes over London.